Flag for Russia Weather past 2 weeks in Penza, Russia

Now
68 °F

Clear.


Feels Like: 68 °F
Forecast: 49 / 65 °F
Wind: 10 mph from West

Location: Saratov / Tsentralny

Current Time: Apr 27, 2015 at 10:47:22 PM

Latest Report: Apr 27, 2015 at 10:00 PM


Visibility: 10 mi

Pressure: 29.98 "Hg

Humidity: 28%

Dew point: 34 °F

Location of PenzaLocation

Historic Weather in Penza — Graph

°F

Penza temperature yesterday

Maximum temperature yesterday: 63 °F (at 4:00 PM)
Minimum temperature yesterday: 37 °F (at 4:00 AM)
Average temperature yesterday: 51 °F

Past Weeks' High & Low Weather Summary

 TemperatureHumidityPressure
High75 °F (Apr 27, 3:00 PM)100% (Apr 19, 12:00 AM)30.21 "Hg (Apr 19, 12:00 AM)
Low32 °F (Apr 20, 5:00 AM)10% (Apr 14, 5:00 PM)29.21 "Hg (Apr 20, 6:00 AM)
Average47 °F54%29.74 "Hg
* Reported Apr 12 9:00 PM — Apr 27 9:30 PM, Penza, Weather by CustomWeather, © 2015

Note: Actual official high and low records may vary slightly from our data, if they occured in-between our weather recording intervals... More about our weather records

Advertising

Penza weather history for previous 24 hours

 ConditionsComfort  
Time TempWeatherWind HumidityBarometerVisibility
9:30 PM
Mon, Apr 27
68 °FClear.10 mph30%29.98 "Hg10 mi
9:00 PM68 °FClear.10 mph30%29.98 "Hg10 mi
8:30 PM70 °FClear.10 mph27%29.95 "Hg10 mi
8:00 PM70 °FSunny.10 mph27%29.95 "Hg10 mi
7:30 PM72 °FSunny.10 mph25%29.95 "Hg10 mi
7:00 PM72 °FSunny.10 mph25%29.95 "Hg10 mi
6:30 PM73 °FSunny.15 mph22%29.92 "Hg10 mi
6:00 PM73 °FSunny.15 mph22%29.92 "Hg10 mi
5:30 PM73 °FSunny.15 mph20%29.92 "Hg10 mi
5:00 PM73 °FSunny.15 mph20%29.92 "Hg10 mi
4:30 PM75 °FSunny.17 mph21%29.92 "Hg10 mi
4:00 PM75 °FSunny.17 mph21%29.92 "Hg10 mi
3:30 PM75 °FSunny.20 mph19%29.92 "Hg10 mi
3:00 PM75 °FSunny.22 mph19%29.92 "Hg10 mi
2:30 PM73 °FSunny.20 mph22%29.92 "Hg10 mi
2:00 PM73 °FSunny.22 mph22%29.92 "Hg10 mi
1:30 PM73 °FSunny.22 mph22%29.92 "Hg10 mi
1:00 PM73 °FSunny.22 mph22%29.92 "Hg10 mi
12:30 PM72 °FSunny.10 mph31%29.98 "Hg10 mi
12:00 PM72 °FSunny.10 mph31%29.98 "Hg10 mi
11:30 AM66 °FSunny.10 mph43%29.98 "Hg10 mi
11:00 AM66 °FSunny.10 mph43%29.98 "Hg10 mi
10:30 AM63 °FSunny.6 mph49%29.98 "Hg10 mi
10:00 AM63 °FSunny.10 mph49%29.98 "Hg10 mi
9:30 AM57 °FSunny.13 mph59%29.98 "Hg10 mi
9:00 AM57 °FSunny.10 mph59%29.95 "Hg10 mi
8:30 AM52 °FPartly sunny.10 mph67%29.95 "HgN/A
8:00 AM52 °FPartly sunny.8 mph67%29.95 "HgN/A
7:30 AM50 °FPartly sunny.8 mph71%29.95 "HgN/A
7:00 AM50 °FPartly sunny.8 mph71%29.95 "HgN/A
6:30 AM54 °FPartly sunny.8 mph58%29.98 "HgN/A
6:00 AM54 °FPartly sunny.6 mph58%29.98 "HgN/A
5:30 AM54 °FSprinkles. Passing clouds.13 mph54%29.98 "HgN/A
5:00 AM54 °FPassing clouds.15 mph54%29.98 "HgN/A
4:30 AM54 °FPassing clouds.17 mph38%29.95 "HgN/A
4:00 AM54 °FPassing clouds.17 mph38%29.95 "HgN/A
3:30 AM52 °FClear.8 mph38%29.95 "Hg10 mi
3:00 AM52 °FClear.10 mph38%29.95 "Hg10 mi
2:30 AM50 °FClear.8 mph43%29.95 "Hg10 mi
2:00 AM50 °FClear.10 mph43%29.95 "Hg10 mi
1:30 AM50 °FClear.13 mph43%29.95 "Hg10 mi
1:00 AM50 °FClear.8 mph43%29.95 "Hg10 mi
12:30 AM52 °FClear.8 mph38%29.95 "Hg10 mi
12:00 AM52 °FClear.10 mph38%29.95 "Hg10 mi
11:30 PM
Sun, Apr 26
55 °FClear.6 mph31%29.98 "Hg10 mi
11:00 PM55 °FClear.3 mph31%29.98 "Hg10 mi
10:30 PM55 °FClear.3 mph31%29.98 "Hg10 mi
10:00 PM55 °FClear.3 mph31%29.98 "Hg10 mi
Weather by CustomWeather, © 2015

See weather overviewHow to use our weather pages